GOES 17 (43226 NORAD) Tracking and Keplerian Element Data

This shows tracking and keplerian element data for the satellite.

Feedback or suggestion? Click here.




ElementValue
Catalog43226
NameGOES 17
Epoch Orbit626
Epoch Day316.59013936
Epoch Year2019
RAAN357.8085
Inclination0.0028
Eccentricity6.25E-05
Argument of Perigee251.1902
Mean Anonmoly237.7005
Mean Motion1.00272839
Decay Rate1.11E-06
L11 43226U 18022A 19316.59013936 .00000111 00000-0 00000-0 0 9999
L22 43226 0.0028 357.8085 0000625 251.1902 237.7005 1.00272839 6268

Live tracking and technical data element details for GOES 17 (NORAD 43226). GOES 17 can be tracked NOW for your location showing map with azimuth and elevation plus other details from your city location.

Track the satellite on the map from your city or location and see movement details for azimuth, elevation, latitude, longitude, range, height, and movement on the map or in text.







IsCatalogInMostPopularTable: catalog: 43226, numindb: 471
Update: records affected: 1



GetName: 43226 GOES 17

Hit Count: updated at: Wed, 13 Nov 2019 17:27:23 GMT